"Pseudo-MPEC" for ST20F33

Created 2020 Jul 2 22:07:11 UT using Find_Orb

Click here for an explanation of pseudo-MPECs

 
 Astrometry: 
     ST20F33  C2020 06 25]?AstrometrypwcIFddR=lk6Jv9=E3redacted;\p1wZ`5ArMahJU68
     ST20F33  C2020 06 25$7qhU#_)Q8-MQJLe,wP^W0xGRpclicktm_DqPo9,My.V*FdhereWU68
     ST20F33  C2020 06 25Rh]qOZG38X1_dfor[31@1(q'uWTN?dX?(iqqMhaj3SxlfY%wT7Y%U68
     ST20F33  C2020 06 25r.\L]Uj;ts+FD2hDsXW'Z/shywBj0Gb?]4V8explanationXqgQVU68

Station data:
(U68) JPL SynTrack Robotic Telescope, Auberry  (N37.070390 W119.412990)
   US/California.

Orbital elements:  ST20F33
   Perihelion 2020 Mar 13.668991 +/- 150 TT = 16:03:20 (JD 2458922.168991)
Epoch 2020 Jun 25.0 TT = JDT 2459025.5   Earth MOID: 0.0064   AutoNEOCP
M  96.65379569 +/- 100              (J2000 ecliptic)
n   0.93538035 +/- 0.444            Peri.  288.56786 +/- 49
a   1.03548517 +/- 0.328            Node   244.07907 +/- 60
e   0.0408673 +/- 0.23              Incl.    2.34452 +/- 43
P   1.05/384.86d           H 27.0   G  0.15   U 12.2  SR
q 0.99316759 +/- 0.572    Q 1.07780275 +/- 6.46
From 4 observations 2020 June 25 (41.8 min); mean residual 0".46
Residuals in arcseconds: 
200625 U68  .22+  .17+    200625 U68  .87-  .35-    
200625 U68  .13-  .15-    200625 U68  .79+  .32+    

Ephemerides (geocentric):
Date (UTC) HH   RA              Dec         delta   r     elong  mag " sig PA
---- -- -- --  -------------   -----------  ------ ------ -----  --- ---- ---
2020 07 02 22  18 34 01.399   +17 14 28.89  .03982 1.0473 139.6 21.7  33d 168
2020 07 02 23  18 33 58.154   +17 14 27.58  .03986 1.0474 139.6 21.7  33d 168
2020 07 03 00  18 33 54.916   +17 14 26.14  .03989 1.0474 139.6 21.7  33d 168
2020 07 03 01  18 33 51.685   +17 14 24.56  .03993 1.0474 139.6 21.7  33d 168
2020 07 03 02  18 33 48.462   +17 14 22.85  .03996 1.0475 139.6 21.7  33d 168
2020 07 03 03  18 33 45.245   +17 14 21.01  .04000 1.0475 139.6 21.7  33d 168
2020 07 03 04  18 33 42.036   +17 14 19.03  .04003 1.0475 139.6 21.7  33d 168
2020 07 03 05  18 33 38.833   +17 14 16.92  .04007 1.0475 139.6 21.7  33d 168
2020 07 03 06  18 33 35.638   +17 14 14.69  .04011 1.0476 139.6 21.7  33d 168
2020 07 03 07  18 33 32.450   +17 14 12.32  .04014 1.0476 139.6 21.7  33d 168
2020 07 03 08  18 33 29.269   +17 14 09.82  .04018 1.0476 139.6 21.7  33d 168
2020 07 03 09  18 33 26.095   +17 14 07.19  .04021 1.0476 139.6 21.7  33d 168
2020 07 03 10  18 33 22.928   +17 14 04.43  .04025 1.0477 139.6 21.7  33d 168
2020 07 03 11  18 33 19.767   +17 14 01.54  .04028 1.0477 139.6 21.7  33d 168
2020 07 03 12  18 33 16.614   +17 13 58.52  .04032 1.0477 139.6 21.7  33d 168
2020 07 03 13  18 33 13.468   +17 13 55.37  .04035 1.0478 139.6 21.7  33d 168
2020 07 03 14  18 33 10.329   +17 13 52.10  .04039 1.0478 139.6 21.7  33d 168
2020 07 03 15  18 33 07.197   +17 13 48.69  .04042 1.0478 139.6 21.7  33d 168
2020 07 03 16  18 33 04.072   +17 13 45.16  .04046 1.0478 139.6 21.7  33d 168
2020 07 03 17  18 33 00.954   +17 13 41.49  .04050 1.0479 139.6 21.7  33d 168
2020 07 03 18  18 32 57.842   +17 13 37.70  .04053 1.0479 139.6 21.7  33d 168
2020 07 03 19  18 32 54.738   +17 13 33.79  .04057 1.0479 139.6 21.7  33d 168
2020 07 03 20  18 32 51.641   +17 13 29.74  .04060 1.0479 139.6 21.7  33d 168
2020 07 03 21  18 32 48.550   +17 13 25.57  .04064 1.0480 139.6 21.7  33d 168
2020 07 03 22  18 32 45.466   +17 13 21.27  .04067 1.0480 139.6 21.7  33d 168
2020 07 03 23  18 32 42.390   +17 13 16.85  .04071 1.0480 139.6 21.8  33d 168
2020 07 04 00  18 32 39.320   +17 13 12.29  .04074 1.0481 139.6 21.8  33d 168
2020 07 04 01  18 32 36.257   +17 13 07.62  .04078 1.0481 139.6 21.8  33d 168
2020 07 04 02  18 32 33.200   +17 13 02.82  .04082 1.0481 139.6 21.8  33d 168
2020 07 04 03  18 32 30.151   +17 12 57.89  .04085 1.0481 139.6 21.8  33d 168
2020 07 04 04  18 32 27.109   +17 12 52.83  .04089 1.0482 139.6 21.8  33d 168
2020 07 04 05  18 32 24.073   +17 12 47.66  .04092 1.0482 139.6 21.8  33d 168
2020 07 04 06  18 32 21.044   +17 12 42.35  .04096 1.0482 139.6 21.8  33d 168
2020 07 04 07  18 32 18.022   +17 12 36.93  .04099 1.0482 139.6 21.8  33d 168
2020 07 04 08  18 32 15.006   +17 12 31.37  .04103 1.0483 139.6 21.8  33d 168
2020 07 04 09  18 32 11.998   +17 12 25.70  .04107 1.0483 139.6 21.8  33d 168
2020 07 04 10  18 32 08.996   +17 12 19.90  .04110 1.0483 139.6 21.8  33d 168
2020 07 04 11  18 32 06.001   +17 12 13.98  .04114 1.0483 139.6 21.8  34d 168
2020 07 04 12  18 32 03.012   +17 12 07.93  .04117 1.0484 139.6 21.8  34d 168
2020 07 04 13  18 32 00.031   +17 12 01.77  .04121 1.0484 139.6 21.8  34d 168
2020 07 04 14  18 31 57.056   +17 11 55.48  .04125 1.0484 139.6 21.8  34d 168
2020 07 04 15  18 31 54.088   +17 11 49.06  .04128 1.0485 139.6 21.8  34d 168
2020 07 04 16  18 31 51.126   +17 11 42.53  .04132 1.0485 139.6 21.8  34d 168
2020 07 04 17  18 31 48.171   +17 11 35.87  .04135 1.0485 139.6 21.8  34d 168
2020 07 04 18  18 31 45.223   +17 11 29.09  .04139 1.0485 139.6 21.8  34d 168
2020 07 04 19  18 31 42.282   +17 11 22.19  .04142 1.0486 139.6 21.8  34d 168
2020 07 04 20  18 31 39.347   +17 11 15.17  .04146 1.0486 139.6 21.8  34d 168
2020 07 04 21  18 31 36.419   +17 11 08.03  .04150 1.0486 139.5 21.8  34d 168